Stündliche Wetter Labensk

Heute, 16 Mai, Sonntag

Zeit Temperatur Niederschläge Wind Luftdruck Luftfeuchtigkeit
00:00 +12°C° 0 mm 2 m/S 749 mmHg 97%
01:00 +10°C° 0 mm 2 m/S 749 mmHg 97%
02:00 +10°C° 0 mm 2 m/S 749 mmHg 97%
03:00 +10°C° 0 mm 2 m/S 749 mmHg 97%
04:00 +10°C° 0 mm 2 m/S 750 mmHg 97%
05:00 +10°C° 0 mm 2 m/S 750 mmHg 97%
06:00 +12°C° 0 mm 2 m/S 750 mmHg 95%
07:00 +13°C° 0 mm 2 m/S 751 mmHg 92%
08:00 +14°C° 0 mm 2 m/S 751 mmHg 90%
09:00 +15°C° 0 mm 2 m/S 752 mmHg 84%
10:00 +16°C° 0 mm 1 m/S 752 mmHg 77%
11:00 +18°C° 0 mm 1 m/S 752 mmHg 71%
12:00 +20°C° 0 mm 1 m/S 752 mmHg 64%
13:00 +21°C° 0 mm 1 m/S 752 mmHg 57%
14:00 +22°C° 0 mm 1 m/S 752 mmHg 50%
15:00 +22°C° 0 mm 1 m/S 752 mmHg 52%
16:00 +22°C° 0 mm 1 m/S 752 mmHg 53%
17:00 +21°C° 0 mm 1 m/S 752 mmHg 55%
18:00 +20°C° 0 mm 1 m/S 752 mmHg 62%
19:00 +18°C° 0 mm 1 m/S 752 mmHg 70%
20:00 +16°C° 0 mm 1 m/S 752 mmHg 77%
21:00 +15°C° 0 mm 1 m/S 752 mmHg 82%
22:00 +14°C° 0 mm 2 m/S 752 mmHg 86%
23:00 +13°C° 0 mm 2 m/S 753 mmHg 90%

Morgen, 17 Mai, Montag

Zeit Temperatur Niederschläge Wind Luftdruck Luftfeuchtigkeit
00:00 +12°C° 0 mm 2 m/S 753 mmHg 91%
01:00 +12°C° 0 mm 2 m/S 752 mmHg 93%
02:00 +12°C° 0 mm 2 m/S 752 mmHg 94%
03:00 +12°C° 0 mm 2 m/S 752 mmHg 94%
04:00 +12°C° 0 mm 2 m/S 752 mmHg 93%
05:00 +12°C° 0 mm 2 m/S 752 mmHg 92%
06:00 +13°C° 0 mm 3 m/S 752 mmHg 85%
07:00 +16°C° 0 mm 3 m/S 752 mmHg 78%
08:00 +18°C° 0 mm 4 m/S 752 mmHg 70%
09:00 +19°C° 0.1 mm 4 m/S 752 mmHg 66%
10:00 +20°C° 0.1 mm 5 m/S 752 mmHg 62%
11:00 +22°C° 0.1 mm 5 m/S 752 mmHg 58%
12:00 +22°C° 0.2 mm 5 m/S 751 mmHg 59%
13:00 +22°C° 0.2 mm 5 m/S 751 mmHg 60%
14:00 +22°C° 0.2 mm 4 m/S 751 mmHg 62%
15:00 +21°C° 0.4 mm 4 m/S 751 mmHg 67%
16:00 +20°C° 0.4 mm 5 m/S 751 mmHg 72%
17:00 +19°C° 0.4 mm 5 m/S 750 mmHg 77%
18:00 +17°C° 0.3 mm 3 m/S 750 mmHg 82%
19:00 +16°C° 0.3 mm 2 m/S 750 mmHg 87%
20:00 +15°C° 0.3 mm 1 m/S 750 mmHg 92%
21:00 +14°C° 0.9 mm 1 m/S 750 mmHg 94%
22:00 +14°C° 0.9 mm 1 m/S 750 mmHg 95%
23:00 +14°C° 0.9 mm 2 m/S 749 mmHg 97%

übermorgen, 18 Mai, Dienstag

Zeit Temperatur Niederschläge Wind Luftdruck Luftfeuchtigkeit
00:00 +14°C° 0.2 mm 2 m/S 749 mmHg 97%
01:00 +14°C° 0.2 mm 2 m/S 748 mmHg 98%
02:00 +14°C° 0.2 mm 2 m/S 748 mmHg 98%
03:00 +14°C° 0.1 mm 2 m/S 747 mmHg 98%
04:00 +15°C° 0.1 mm 2 m/S 747 mmHg 98%
05:00 +15°C° 0.1 mm 2 m/S 747 mmHg 98%
06:00 +16°C° 0.7 mm 2 m/S 746 mmHg 97%
07:00 +17°C° 0.7 mm 3 m/S 746 mmHg 96%
08:00 +17°C° 0.7 mm 3 m/S 745 mmHg 95%
09:00 +19°C° 0.4 mm 3 m/S 745 mmHg 92%
10:00 +20°C° 0.4 mm 4 m/S 745 mmHg 89%
11:00 +21°C° 0.4 mm 4 m/S 744 mmHg 86%
12:00 +21°C° 1 mm 5 m/S 744 mmHg 84%
13:00 +21°C° 1 mm 5 m/S 744 mmHg 83%
14:00 +22°C° 1 mm 5 m/S 743 mmHg 81%
15:00 +21°C° 0.5 mm 6 m/S 743 mmHg 81%
16:00 +21°C° 0.5 mm 6 m/S 743 mmHg 80%
17:00 +21°C° 0.5 mm 6 m/S 743 mmHg 80%
18:00 +20°C° 0.3 mm 5 m/S 743 mmHg 84%
19:00 +17°C° 0.3 mm 5 m/S 743 mmHg 87%
20:00 +16°C° 0.3 mm 5 m/S 743 mmHg 91%
21:00 +15°C° 0 mm 5 m/S 743 mmHg 91%
22:00 +15°C° 0 mm 5 m/S 743 mmHg 91%
23:00 +14°C° 0 mm 5 m/S 743 mmHg 91%

19 Mai, Mittwoch

Zeit Temperatur Niederschläge Wind Luftdruck Luftfeuchtigkeit
00:00 +13°C° 0 mm 5 m/S 743 mmHg 90%
01:00 +13°C° 0 mm 5 m/S 743 mmHg 88%
02:00 +12°C° 0 mm 5 m/S 743 mmHg 86%
03:00 +12°C° 0 mm 5 m/S 744 mmHg 86%
04:00 +12°C° 0 mm 5 m/S 744 mmHg 86%
05:00 +12°C° 0 mm 5 m/S 744 mmHg 87%
06:00 +12°C° 0 mm 4 m/S 745 mmHg 86%
07:00 +12°C° 0 mm 4 m/S 745 mmHg 86%
08:00 +12°C° 0 mm 4 m/S 746 mmHg 86%
09:00 +12°C° 0 mm 4 m/S 747 mmHg 86%
10:00 +12°C° 0 mm 3 m/S 747 mmHg 86%
11:00 +12°C° 0 mm 3 m/S 748 mmHg 86%
12:00 +13°C° 0 mm 3 m/S 748 mmHg 79%
13:00 +14°C° 0 mm 3 m/S 748 mmHg 73%
14:00 +16°C° 0 mm 3 m/S 748 mmHg 67%
15:00 +17°C° 0 mm 3 m/S 748 mmHg 65%
16:00 +17°C° 0 mm 3 m/S 748 mmHg 64%
17:00 +17°C° 0 mm 3 m/S 748 mmHg 62%
18:00 +16°C° 0 mm 3 m/S 748 mmHg 68%
19:00 +15°C° 0 mm 2 m/S 748 mmHg 74%
20:00 +14°C° 0 mm 2 m/S 748 mmHg 80%
21:00 +13°C° 0.1 mm 2 m/S 748 mmHg 82%
22:00 +13°C° 0.1 mm 2 m/S 748 mmHg 83%
23:00 +12°C° 0.1 mm 3 m/S 748 mmHg 84%

20 Mai, Donnerstag

Zeit Temperatur Niederschläge Wind Luftdruck Luftfeuchtigkeit
00:00 +11°C° 0.4 mm 3 m/S 748 mmHg 86%
01:00 +11°C° 0.4 mm 3 m/S 748 mmHg 87%
02:00 +10°C° 0.4 mm 4 m/S 748 mmHg 88%
03:00 +10°C° 1.4 mm 4 m/S 747 mmHg 91%
04:00 +8°C° 1.4 mm 4 m/S 747 mmHg 93%
05:00 +8°C° 1.4 mm 4 m/S 747 mmHg 96%
06:00 +8°C° 1.3 mm 5 m/S 747 mmHg 96%
07:00 +8°C° 1.3 mm 5 m/S 747 mmHg 96%
08:00 +8°C° 1.3 mm 5 m/S 747 mmHg 95%
09:00 +8°C° 1 mm 5 m/S 747 mmHg 95%
10:00 +8°C° 1 mm 5 m/S 747 mmHg 95%
11:00 +8°C° 1 mm 5 m/S 747 mmHg 95%
12:00 +8°C° 4.2 mm 5 m/S 747 mmHg 95%
13:00 +8°C° 4.2 mm 5 m/S 748 mmHg 95%
14:00 +8°C° 4.2 mm 5 m/S 748 mmHg 95%
15:00 +9°C° 1 mm 5 m/S 749 mmHg 94%
16:00 +9°C° 1 mm 5 m/S 749 mmHg 93%
17:00 +10°C° 1 mm 4 m/S 750 mmHg 92%
18:00 +10°C° 0.1 mm 4 m/S 750 mmHg 91%
19:00 +9°C° 0.1 mm 3 m/S 750 mmHg 90%
20:00 +9°C° 0.1 mm 3 m/S 751 mmHg 89%
21:00 +8°C° 0 mm 3 m/S 751 mmHg 90%
22:00 +7°C° 0 mm 3 m/S 751 mmHg 92%
23:00 +7°C° 0 mm 3 m/S 752 mmHg 93%

21 Mai, Freitag

Zeit Temperatur Niederschläge Wind Luftdruck Luftfeuchtigkeit
00:00 +6°C° 0 mm 2 m/S 752 mmHg 93%
01:00 +6°C° 0 mm 2 m/S 752 mmHg 92%
02:00 +6°C° 0 mm 2 m/S 752 mmHg 92%
03:00 +6°C° 0 mm 2 m/S 752 mmHg 93%
04:00 +6°C° 0 mm 2 m/S 753 mmHg 94%
05:00 +5°C° 0 mm 3 m/S 753 mmHg 94%
06:00 +7°C° 0 mm 3 m/S 753 mmHg 86%
07:00 +8°C° 0 mm 4 m/S 753 mmHg 78%
08:00 +10°C° 0 mm 4 m/S 753 mmHg 69%
09:00 +11°C° 0 mm 4 m/S 753 mmHg 62%
10:00 +12°C° 0 mm 4 m/S 753 mmHg 56%
11:00 +13°C° 0 mm 4 m/S 752 mmHg 49%
12:00 +14°C° 0 mm 4 m/S 752 mmHg 46%
13:00 +15°C° 0 mm 4 m/S 752 mmHg 44%
14:00 +15°C° 0 mm 4 m/S 752 mmHg 41%
15:00 +15°C° 0 mm 4 m/S 751 mmHg 46%
16:00 +14°C° 0 mm 3 m/S 751 mmHg 50%
17:00 +14°C° 0 mm 3 m/S 750 mmHg 54%
18:00 +12°C° 0 mm 3 m/S 750 mmHg 62%
19:00 +12°C° 0 mm 2 m/S 750 mmHg 70%
20:00 +9°C° 0 mm 2 m/S 750 mmHg 78%
21:00 +8°C° 0 mm 2 m/S 750 mmHg 83%
22:00 +7°C° 0 mm 2 m/S 750 mmHg 88%
23:00 +6°C° 0 mm 2 m/S 750 mmHg 93%
Mehr zeigen

Wir brauchen deine Erlaubnis

Meteoprog und unser Service Anbieter werden persönliche Daten aufbewahren, so wie Cookies, Geräte Bezeichnung oder ähnliche Technologien von deinem Gerät und Prozess, so wie Persönliche Daten Inhalte und Werbungen, genauso wie social Media und den Verkehr zu analysieren.

  • Aufbewahrung und/oder Zugang zu deiner Geräte Informationen.

    Cookies, Geräte Bezeichnung oder andere Informationen, können aufbewahrt oder Zugang zu deinem Gerät erhalten, für den Grund, der oben angegeben wird.

  • Personalisierte Werbung und Inhalte, Messungen, Einblick in das Publikum und Produkt Entwicklung.

    Werbungen und Inhalte können personalisiert werden, basierend auf ein Profil. Mehr Daten können besser personalisierte Werbungen und Inhalte hinzufügen. Werbung und Inhalte können gezeigt und gemessen werden. Einblicke über das Publikum, welche die Werbung gesehen haben und den Inhalt, können abgeleitet werden. So wie Daten können genutzt werden, um es zu verbessern oder die Benutzer Erfahrung zu verbessern das System und die Software.

Wenn du “Ich stimme zu” klickst, erlaubst du uns, die Cookies zu benutzen die Geräte Bezeichnung, den Web oder ähnliche Technologien zu benutzen. Deine Settings, können in deinem Gerät bei deinem Browser geändert werden.

Für den bestimmten Zweck, berechtigten Interessen beruhen darauf, mehr als auf den Inhalt. Du kannst mehr darüber in unseren Privaten und Cookie Politik lesen.